Total_Precipitation_Accumulation
0.00 0.01 0.02 0.03 0.04 0.03 0.03 0.04 0.11 0.08 0.09 0.08 0.03 0.02 0.02 0.03 0.04 0.04 0.03 0.06 0.05 0.06 0.08 0.11 0.14 0.18 0.22 0.22 0.24 0.28 0.38 0.55 0.71 0.81 0.66 0.45 0.33 0.28 0.25 0.29 0.37 0.45 0.55 0.62
0.00 0.01 0.02 0.03 0.05 0.03 0.02 0.02 0.02 0.03 0.05 0.03 0.02 0.03 0.03 0.03 0.04 0.03 0.03 0.04 0.05 0.06 0.10 0.12 0.13 0.14 0.14 0.16 0.18 0.24 0.31 0.36 0.47 0.52 0.43 0.29 0.17 0.12 0.16 0.23 0.29 0.36 0.41 0.46
0.00 0.01 0.01 0.05 0.04 0.02 0.01 0.02 0.04 0.05 0.06 0.04 0.04 0.05 0.05 0.05 0.04 0.03 0.02 0.02 0.01 0.02 0.03 0.04 0.07 0.08 0.08 0.10 0.16 0.27 0.34 0.33 0.39 0.43 0.37 0.25 0.13 0.11 0.14 0.19 0.23 0.26 0.28 0.30
0.00 0.01 0.05 0.05 0.02 0.02 0.02 0.03 0.05 0.06 0.06 0.06 0.07 0.06 0.06 0.06 0.04 0.03 0.02 0.01 0.01 0.01 0.02 0.02 0.03 0.03 0.04 0.08 0.16 0.24 0.29 0.30 0.39 0.45 0.42 0.32 0.25 0.22 0.22 0.24 0.25 0.26 0.26 0.25
0.00 0.01 0.04 0.03 0.03 0.05 0.05 0.06 0.06 0.07 0.08 0.08 0.07 0.05 0.04 0.03 0.02 0.01 0.01 0.01 0.02 0.02 0.03 0.03 0.03 0.04 0.04 0.08 0.15 0.22 0.28 0.33 0.38 0.46 0.47 0.41 0.37 0.36 0.35 0.34 0.32 0.30 0.28 0.27
0.01 0.02 0.06 0.05 0.05 0.06 0.07 0.16 0.13 0.09 0.07 0.04 0.03 0.05 0.02 0.01 0.01 0.01 0.01 0.01 0.02 0.02 0.03 0.03 0.05 0.07 0.11 0.13 0.17 0.25 0.30 0.36 0.41 0.51 0.56 0.50 0.48 0.47 0.45 0.46 0.41 0.37 0.33 0.33
0.03 0.07 0.08 0.03 0.04 0.04 0.12 0.19 0.07 0.03 0.02 0.02 0.05 0.08 0.03 0.01 0.01 0.01 0.01 0.02 0.03 0.04 0.04 0.06 0.09 0.13 0.18 0.18 0.21 0.25 0.30 0.35 0.44 0.57 0.62 0.61 0.64 0.65 0.59 0.53 0.52 0.51 0.46 0.43
0.05 0.10 0.13 0.04 0.03 0.05 0.07 0.04 0.03 0.03 0.03 0.04 0.03 0.02 0.02 0.01 0.01 0.01 0.02 0.03 0.04 0.05 0.08 0.10 0.14 0.21 0.26 0.27 0.27 0.28 0.32 0.38 0.50 0.57 0.53 0.52 0.67 0.72 0.69 0.66 0.64 0.62 0.59 0.55
0.07 0.09 0.04 0.02 0.02 0.03 0.03 0.05 0.04 0.04 0.02 0.03 0.03 0.03 0.03 0.03 0.02 0.03 0.03 0.04 0.06 0.09 0.13 0.17 0.24 0.33 0.41 0.41 0.40 0.38 0.40 0.45 0.52 0.54 0.59 0.67 0.70 0.71 0.73 0.73 0.69 0.64 0.62 0.61
0.07 0.04 0.02 0.02 0.02 0.02 0.02 0.03 0.02 0.02 0.02 0.03 0.05 0.05 0.05 0.05 0.05 0.04 0.05 0.06 0.08 0.11 0.18 0.26 0.35 0.46 0.54 0.54 0.52 0.50 0.47 0.46 0.48 0.54 0.59 0.70 0.81 0.80 0.76 0.75 0.75 0.73 0.69 0.64
0.06 0.04 0.03 0.03 0.03 0.02 0.01 0.01 0.01 0.02 0.02 0.04 0.06 0.07 0.06 0.06 0.06 0.06 0.05 0.05 0.07 0.14 0.23 0.32 0.46 0.57 0.59 0.59 0.61 0.62 0.57 0.51 0.50 0.54 0.60 0.71 0.78 0.84 0.81 0.79 0.68 0.68 0.68 0.66
0.07 0.07 0.08 0.07 0.04 0.02 0.02 0.02 0.03 0.03 0.03 0.03 0.04 0.06 0.06 0.06 0.07 0.07 0.07 0.07 0.13 0.20 0.26 0.31 0.44 0.59 0.64 0.67 0.71 0.74 0.72 0.67 0.64 0.64 0.67 0.69 0.75 0.74 0.65 0.60 0.50 0.47 0.46 0.47
0.06 0.05 0.06 0.06 0.05 0.04 0.05 0.04 0.03 0.03 0.03 0.04 0.04 0.05 0.06 0.06 0.06 0.06 0.07 0.10 0.16 0.21 0.25 0.30 0.38 0.49 0.60 0.73 0.82 0.86 0.83 0.81 0.79 0.72 0.71 0.74 0.78 0.81 0.78 0.65 0.55 0.46 0.37 0.32
0.03 0.04 0.05 0.05 0.04 0.03 0.03 0.03 0.02 0.02 0.03 0.03 0.03 0.04 0.04 0.05 0.06 0.08 0.11 0.13 0.15 0.19 0.24 0.33 0.42 0.49 0.57 0.73 0.84 0.86 0.85 0.84 0.81 0.77 0.73 0.74 0.78 0.78 0.82 0.83 0.75 0.62 0.45 0.33
0.02 0.04 0.05 0.04 0.02 0.02 0.03 0.03 0.02 0.03 0.03 0.04 0.04 0.04 0.05 0.07 0.09 0.11 0.13 0.16 0.20 0.23 0.28 0.38 0.48 0.55 0.67 0.80 0.86 0.85 0.83 0.81 0.78 0.77 0.75 0.71 0.75 0.75 0.74 0.79 0.78 0.72 0.58 0.42
0.01 0.01 0.02 0.02 0.02 0.03 0.04 0.04 0.04 0.04 0.05 0.05 0.05 0.06 0.06 0.08 0.09 0.12 0.15 0.20 0.30 0.33 0.39 0.50 0.57 0.62 0.75 0.86 0.92 0.89 0.83 0.76 0.72 0.70 0.71 0.70 0.71 0.74 0.70 0.73 0.72 0.71 0.60 0.45
0.03 0.02 0.01 0.02 0.03 0.05 0.06 0.07 0.06 0.06 0.06 0.06 0.06 0.07 0.08 0.10 0.15 0.19 0.22 0.25 0.32 0.38 0.47 0.61 0.64 0.64 0.77 0.90 0.98 0.96 0.87 0.75 0.63 0.60 0.61 0.66 0.70 0.70 0.68 0.66 0.65 0.64 0.53 0.37
0.03 0.04 0.04 0.05 0.06 0.08 0.09 0.10 0.10 0.10 0.11 0.11 0.12 0.13 0.16 0.23 0.33 0.39 0.40 0.41 0.44 0.42 0.44 0.56 0.62 0.68 0.76 0.85 0.93 0.96 0.93 0.83 0.68 0.56 0.55 0.61 0.67 0.68 0.65 0.61 0.59 0.58 0.47 0.31
0.03 0.04 0.06 0.11 0.16 0.17 0.17 0.17 0.18 0.18 0.19 0.19 0.20 0.23 0.28 0.36 0.47 0.56 0.57 0.61 0.65 0.63 0.56 0.54 0.59 0.63 0.70 0.76 0.82 0.89 0.86 0.78 0.67 0.50 0.48 0.54 0.59 0.64 0.62 0.55 0.53 0.51 0.41 0.28
0.03 0.03 0.05 0.15 0.27 0.32 0.32 0.31 0.31 0.30 0.28 0.27 0.29 0.34 0.40 0.45 0.56 0.67 0.69 0.67 0.68 0.73 0.68 0.60 0.57 0.59 0.64 0.68 0.71 0.76 0.73 0.71 0.65 0.47 0.43 0.51 0.55 0.60 0.57 0.47 0.44 0.39 0.29 0.22
0.01 0.02 0.03 0.06 0.13 0.21 0.26 0.27 0.28 0.31 0.33 0.37 0.47 0.57 0.65 0.63 0.66 0.78 0.87 0.77 0.63 0.67 0.65 0.58 0.51 0.52 0.55 0.66 0.70 0.71 0.67 0.64 0.64 0.52 0.42 0.46 0.52 0.56 0.51 0.42 0.35 0.28 0.20 0.16
0.02 0.03 0.04 0.06 0.07 0.09 0.10 0.13 0.19 0.29 0.37 0.42 0.49 0.62 0.76 0.83 0.87 0.87 0.79 0.77 0.70 0.69 0.60 0.53 0.47 0.46 0.46 0.53 0.65 0.67 0.65 0.62 0.63 0.57 0.47 0.45 0.49 0.48 0.44 0.35 0.25 0.18 0.13 0.11
0.01 0.02 0.03 0.03 0.04 0.06 0.08 0.10 0.16 0.26 0.36 0.43 0.53 0.71 0.87 0.92 1.01 1.14 0.96 0.69 0.63 0.64 0.58 0.49 0.46 0.42 0.39 0.39 0.52 0.58 0.57 0.60 0.61 0.58 0.50 0.42 0.39 0.37 0.34 0.25 0.17 0.11 0.10 0.10
0.02 0.02 0.02 0.02 0.04 0.06 0.10 0.13 0.18 0.25 0.34 0.40 0.48 0.66 0.87 1.01 0.98 0.88 0.81 0.68 0.58 0.52 0.51 0.46 0.37 0.35 0.34 0.31 0.38 0.45 0.48 0.52 0.49 0.45 0.40 0.32 0.30 0.28 0.22 0.17 0.12 0.08 0.07 0.07
0.03 0.03 0.03 0.05 0.10 0.16 0.23 0.29 0.33 0.37 0.45 0.48 0.49 0.55 0.66 0.87 1.01 0.82 0.60 0.53 0.50 0.44 0.43 0.42 0.36 0.32 0.29 0.26 0.27 0.31 0.37 0.39 0.37 0.36 0.31 0.27 0.24 0.20 0.15 0.12 0.08 0.06 0.05 0.05
0.04 0.05 0.06 0.09 0.15 0.26 0.39 0.51 0.60 0.63 0.72 0.77 0.68 0.62 0.61 0.65 0.71 0.67 0.53 0.45 0.43 0.41 0.36 0.35 0.34 0.30 0.26 0.24 0.21 0.25 0.32 0.36 0.35 0.32 0.26 0.24 0.21 0.17 0.14 0.11 0.06 0.05 0.04 0.04
0.07 0.07 0.09 0.12 0.20 0.31 0.47 0.62 0.75 0.83 0.89 0.96 0.90 0.73 0.64 0.59 0.60 0.59 0.52 0.46 0.43 0.42 0.39 0.36 0.34 0.31 0.28 0.26 0.23 0.24 0.28 0.32 0.32 0.30 0.28 0.27 0.25 0.20 0.15 0.09 0.06 0.04 0.03 0.03